Zurück zum Katalog

STARLINK-32762

AktivKommunikationVLEO
NORAD 62748·PAYLOAD·🇺🇸 United States

Gestartet Jan 21, 2025 von Cape Canaveral Space Force Station

Loading…

Nächste Überflüge (nächste 24 Stunden)

TLE

AktuellSource: CelesTrak SupGP

Epoche: Sep 14, 2026, 22:22 UTC

1 62748C 25014P   26257.93243056 -.00068289  00000+0 -24731-2 0  2573
2 62748  43.0028 168.9103 0001366 264.5086  32.6928 15.27616379    19

Verfolge STARLINK-32762 in Echtzeit mit AllMySat

Download on the App Store